Total_Precipitation_Accumulation
0.11 0.14 0.20 0.40 0.46 0.37 0.36 0.35 0.39 0.36 0.40 0.50 0.56 0.58 0.59 0.61 0.53 0.44 0.38 0.33 0.27 0.24 0.23 0.25 0.29 0.36 0.47 0.74 0.94 0.95 0.94 0.82 0.68 0.56 0.46 0.43 0.47 0.49 0.46 0.41 0.44 0.45 0.53 0.62
0.09 0.09 0.11 0.14 0.11 0.11 0.13 0.19 0.25 0.29 0.38 0.45 0.47 0.47 0.51 0.52 0.38 0.32 0.28 0.26 0.25 0.21 0.18 0.14 0.14 0.19 0.29 0.48 0.65 0.71 0.77 0.73 0.57 0.51 0.45 0.40 0.42 0.48 0.49 0.39 0.38 0.40 0.44 0.42
0.11 0.08 0.10 0.10 0.07 0.12 0.15 0.17 0.21 0.31 0.44 0.49 0.51 0.56 0.85 0.89 0.57 0.38 0.34 0.29 0.30 0.29 0.25 0.22 0.18 0.17 0.19 0.26 0.36 0.43 0.47 0.48 0.38 0.36 0.44 0.44 0.45 0.44 0.38 0.32 0.34 0.36 0.32 0.28
0.14 0.12 0.15 0.09 0.06 0.11 0.15 0.15 0.15 0.17 0.20 0.26 0.37 0.51 0.68 0.76 0.62 0.44 0.40 0.32 0.28 0.25 0.23 0.20 0.17 0.16 0.16 0.18 0.21 0.23 0.23 0.20 0.16 0.23 0.33 0.34 0.31 0.28 0.24 0.24 0.29 0.37 0.32 0.29
0.15 0.23 0.20 0.06 0.05 0.06 0.08 0.08 0.06 0.07 0.07 0.09 0.12 0.14 0.16 0.21 0.24 0.22 0.18 0.14 0.10 0.08 0.08 0.07 0.07 0.07 0.06 0.05 0.05 0.05 0.05 0.05 0.06 0.08 0.08 0.08 0.07 0.09 0.12 0.17 0.21 0.19 0.23 0.38
0.14 0.20 0.16 0.06 0.03 0.03 0.05 0.09 0.04 0.02 0.02 0.03 0.06 0.10 0.09 0.15 0.10 0.04 0.03 0.02 0.03 0.04 0.05 0.05 0.04 0.05 0.04 0.04 0.04 0.03 0.04 0.03 0.03 0.04 0.05 0.04 0.03 0.04 0.05 0.08 0.11 0.11 0.15 0.28
0.12 0.18 0.10 0.03 0.03 0.02 0.06 0.06 0.02 0.01 0.01 0.01 0.02 0.03 0.03 0.10 0.08 0.01 0.01 0.02 0.03 0.04 0.04 0.04 0.04 0.03 0.03 0.03 0.03 0.04 0.04 0.03 0.03 0.03 0.05 0.06 0.07 0.05 0.04 0.03 0.04 0.07 0.12 0.15
0.09 0.12 0.09 0.03 0.02 0.03 0.04 0.02 0.01 0.02 0.01 0.01 0.01 0.01 0.02 0.05 0.06 0.01 0.02 0.02 0.03 0.03 0.04 0.04 0.05 0.04 0.03 0.03 0.04 0.05 0.05 0.04 0.03 0.03 0.04 0.05 0.10 0.09 0.06 0.05 0.04 0.05 0.07 0.11
0.06 0.06 0.05 0.03 0.02 0.03 0.02 0.02 0.02 0.02 0.02 0.01 0.01 0.01 0.01 0.03 0.06 0.02 0.01 0.02 0.02 0.02 0.03 0.04 0.05 0.06 0.04 0.04 0.05 0.05 0.05 0.05 0.04 0.03 0.04 0.04 0.06 0.07 0.08 0.05 0.04 0.05 0.06 0.08
0.04 0.04 0.03 0.02 0.01 0.01 0.01 0.01 0.01 0.02 0.03 0.02 0.02 0.01 0.01 0.01 0.05 0.03 0.01 0.01 0.01 0.01 0.02 0.03 0.04 0.06 0.06 0.06 0.08 0.07 0.06 0.05 0.05 0.05 0.05 0.04 0.04 0.05 0.06 0.06 0.05 0.05 0.06 0.08
0.05 0.04 0.02 0.01 0.01 0.01 0.01 0.01 0.01 0.02 0.02 0.03 0.03 0.02 0.01 0.01 0.02 0.02 0.02 0.01 0.01 0.01 0.02 0.02 0.03 0.05 0.06 0.06 0.08 0.09 0.08 0.08 0.08 0.08 0.07 0.06 0.06 0.05 0.05 0.06 0.07 0.05 0.05 0.07
0.04 0.03 0.03 0.02 0.01 0.01 0.01 0.01 0.00 0.00 0.01 0.02 0.03 0.02 0.02 0.01 0.01 0.01 0.01 0.01 0.01 0.01 0.02 0.02 0.02 0.03 0.04 0.04 0.06 0.08 0.09 0.09 0.08 0.09 0.11 0.11 0.09 0.07 0.06 0.06 0.07 0.06 0.06 0.06
0.02 0.02 0.02 0.01 0.01 0.01 0.01 0.01 0.00 0.00 0.00 0.01 0.03 0.02 0.02 0.02 0.01 0.01 0.01 0.01 0.01 0.02 0.02 0.03 0.02 0.02 0.03 0.03 0.06 0.07 0.07 0.06 0.05 0.05 0.05 0.06 0.07 0.07 0.07 0.07 0.07 0.07 0.07 0.07
0.01 0.01 0.01 0.01 0.01 0.02 0.01 0.01 0.00 0.00 0.00 0.00 0.01 0.02 0.02 0.02 0.01 0.01 0.02 0.01 0.01 0.02 0.02 0.03 0.03 0.03 0.03 0.04 0.05 0.05 0.06 0.06 0.06 0.05 0.05 0.04 0.04 0.05 0.07 0.10 0.11 0.10 0.09 0.08
0.01 0.01 0.01 0.01 0.01 0.02 0.02 0.02 0.01 0.01 0.01 0.00 0.00 0.01 0.02 0.02 0.01 0.01 0.02 0.03 0.02 0.02 0.02 0.02 0.04 0.05 0.04 0.04 0.05 0.05 0.06 0.06 0.06 0.06 0.06 0.06 0.05 0.05 0.05 0.07 0.09 0.10 0.11 0.09
0.01 0.01 0.01 0.01 0.01 0.01 0.02 0.03 0.02 0.01 0.01 0.01 0.01 0.01 0.02 0.03 0.03 0.02 0.02 0.02 0.02 0.03 0.03 0.02 0.03 0.04 0.06 0.06 0.07 0.07 0.06 0.06 0.06 0.07 0.08 0.07 0.06 0.06 0.06 0.07 0.07 0.08 0.09 0.10
0.02 0.02 0.02 0.02 0.01 0.01 0.01 0.03 0.03 0.02 0.01 0.00 0.00 0.01 0.02 0.03 0.03 0.03 0.04 0.02 0.02 0.02 0.02 0.02 0.03 0.04 0.06 0.06 0.05 0.06 0.07 0.08 0.08 0.08 0.08 0.08 0.07 0.08 0.09 0.09 0.09 0.09 0.10 0.11
0.03 0.03 0.03 0.02 0.02 0.01 0.01 0.01 0.02 0.03 0.03 0.01 0.01 0.01 0.01 0.03 0.04 0.03 0.04 0.04 0.03 0.02 0.02 0.03 0.03 0.03 0.04 0.05 0.04 0.05 0.06 0.07 0.08 0.09 0.10 0.10 0.07 0.07 0.08 0.10 0.11 0.11 0.11 0.12
0.04 0.03 0.02 0.02 0.02 0.01 0.01 0.01 0.01 0.01 0.02 0.02 0.01 0.01 0.01 0.03 0.04 0.04 0.04 0.04 0.04 0.02 0.02 0.03 0.04 0.03 0.04 0.05 0.06 0.06 0.07 0.08 0.09 0.09 0.11 0.12 0.11 0.08 0.09 0.11 0.12 0.13 0.13 0.13
0.03 0.03 0.03 0.02 0.02 0.02 0.02 0.01 0.01 0.02 0.01 0.01 0.01 0.01 0.01 0.03 0.05 0.05 0.05 0.05 0.04 0.03 0.02 0.02 0.03 0.03 0.03 0.04 0.05 0.07 0.08 0.09 0.10 0.10 0.12 0.13 0.13 0.13 0.13 0.13 0.13 0.14 0.14 0.14
0.05 0.04 0.03 0.03 0.02 0.02 0.02 0.01 0.01 0.01 0.01 0.01 0.01 0.01 0.01 0.02 0.05 0.06 0.06 0.06 0.05 0.04 0.03 0.04 0.04 0.04 0.04 0.06 0.07 0.07 0.08 0.08 0.09 0.11 0.12 0.14 0.14 0.15 0.15 0.15 0.16 0.17 0.18 0.18
0.05 0.04 0.04 0.03 0.03 0.02 0.02 0.02 0.02 0.01 0.01 0.01 0.01 0.01 0.01 0.02 0.03 0.06 0.07 0.09 0.08 0.08 0.05 0.04 0.04 0.05 0.07 0.09 0.07 0.07 0.07 0.09 0.10 0.12 0.13 0.14 0.14 0.15 0.16 0.18 0.18 0.19 0.20 0.22
0.06 0.05 0.04 0.03 0.03 0.02 0.01 0.01 0.01 0.01 0.01 0.02 0.02 0.02 0.02 0.03 0.04 0.06 0.08 0.10 0.10 0.11 0.09 0.09 0.09 0.09 0.10 0.09 0.08 0.08 0.09 0.10 0.11 0.12 0.14 0.16 0.16 0.16 0.16 0.18 0.21 0.22 0.23 0.24
0.06 0.06 0.06 0.06 0.05 0.05 0.04 0.02 0.02 0.02 0.02 0.02 0.02 0.02 0.02 0.03 0.03 0.05 0.08 0.10 0.12 0.12 0.10 0.10 0.13 0.16 0.17 0.14 0.12 0.11 0.11 0.12 0.14 0.16 0.17 0.18 0.18 0.19 0.20 0.22 0.26 0.28 0.29 0.31
0.07 0.08 0.08 0.08 0.08 0.08 0.07 0.06 0.04 0.04 0.04 0.04 0.03 0.03 0.04 0.04 0.06 0.07 0.08 0.09 0.11 0.11 0.10 0.11 0.14 0.17 0.16 0.14 0.14 0.13 0.12 0.13 0.15 0.18 0.20 0.22 0.22 0.23 0.24 0.26 0.29 0.33 0.34 0.37
0.06 0.07 0.08 0.08 0.07 0.07 0.07 0.07 0.07 0.06 0.06 0.06 0.05 0.05 0.04 0.05 0.05 0.07 0.08 0.09 0.11 0.12 0.11 0.11 0.12 0.13 0.14 0.14 0.14 0.13 0.12 0.11 0.13 0.15 0.18 0.22 0.24 0.24 0.26 0.28 0.31 0.35 0.40 0.40
0.07 0.06 0.07 0.07 0.08 0.08 0.08 0.09 0.10 0.10 0.10 0.09 0.09 0.08 0.07 0.07 0.07 0.08 0.09 0.09 0.10 0.12 0.12 0.13 0.14 0.15 0.15 0.16 0.16 0.16 0.17 0.17 0.18 0.19 0.21 0.24 0.26 0.27 0.28 0.30 0.32 0.36 0.39 0.38